YAHSAT 1A (37393 NORAD) Tracking and Keplerian Element Data

This shows tracking and keplerian element data for the satellite.

Feedback or suggestion? Click here.




ElementValue
Catalog37393
NameYAHSAT 1A
Epoch Orbit4061
Epoch Day354.13366557
Epoch Year2025
RAAN321.6216
Inclination0.0178
Eccentricity0.0002828
Argument of Perigee329.2874
Mean Anonmoly258.6896
Mean Motion1.00270957
Decay Rate1.25E-06
L11 37393U 11016B 25354.13366557 .00000125 00000+0 00000+0 0 9995
L22 37393 0.0178 321.6216 0002828 329.2874 258.6896 1.00270957 40615



Live tracking and technical data element details for YAHSAT 1A (NORAD 37393). YAHSAT 1A can be tracked NOW for your location showing map with azimuth and elevation plus other details from your city location.







IsCatalogInMostPopularTable: catalog: 37393, numindb: 455
Update: records affected: 1



GetName: 37393 YAHSAT 1A

Hit Count: updated at: Sat, 07 Mar 2026 06:37:19 GMT